GEFSSGP_prec_meanprecacc_060.txt.gz
Total_Precipitation_Accumulation
0.05 0.17 0.25 0.31 0.43 0.17 0.04 0.03 0.02 0.02 0.02 0.01 0.01 0.02 0.06 0.11 0.22 0.41 0.13 0.05 0.02 0.01 0.01 0.05 0.08 0.08 0.08 0.08 0.08 0.09 0.12 0.11 0.07 0.10 0.08 0.08 0.06 0.05 0.05 0.05 0.06 0.06 0.07 0.10 0.17 0.27 0.31 0.33 0.42
0.09 0.22 0.29 0.39 0.23 0.06 0.08 0.07 0.06 0.03 0.02 0.02 0.02 0.02 0.04 0.06 0.06 0.13 0.17 0.16 0.03 0.01 0.01 0.03 0.09 0.13 0.16 0.13 0.12 0.14 0.16 0.13 0.12 0.12 0.11 0.10 0.07 0.05 0.05 0.04 0.05 0.06 0.06 0.07 0.12 0.23 0.32 0.37 0.39
0.18 0.28 0.35 0.31 0.11 0.11 0.15 0.12 0.08 0.03 0.02 0.01 0.02 0.02 0.04 0.07 0.11 0.19 0.23 0.14 0.05 0.02 0.04 0.11 0.20 0.26 0.28 0.24 0.23 0.27 0.23 0.20 0.18 0.15 0.13 0.13 0.10 0.09 0.06 0.04 0.04 0.05 0.06 0.08 0.09 0.17 0.27 0.35 0.38
0.18 0.29 0.32 0.19 0.18 0.20 0.21 0.15 0.08 0.05 0.04 0.01 0.02 0.04 0.05 0.10 0.20 0.25 0.24 0.18 0.12 0.09 0.12 0.21 0.31 0.38 0.39 0.28 0.29 0.36 0.30 0.25 0.19 0.13 0.12 0.12 0.09 0.09 0.04 0.04 0.06 0.04 0.05 0.06 0.08 0.13 0.21 0.29 0.35
0.17 0.24 0.20 0.19 0.29 0.31 0.24 0.15 0.09 0.08 0.09 0.03 0.02 0.07 0.07 0.13 0.25 0.30 0.33 0.28 0.27 0.24 0.20 0.25 0.42 0.46 0.43 0.38 0.40 0.48 0.42 0.34 0.22 0.15 0.14 0.12 0.11 0.09 0.06 0.06 0.05 0.04 0.04 0.04 0.05 0.08 0.14 0.19 0.26
0.18 0.27 0.28 0.31 0.42 0.43 0.38 0.25 0.16 0.14 0.09 0.06 0.05 0.10 0.12 0.20 0.38 0.47 0.51 0.59 0.61 0.58 0.44 0.41 0.53 0.55 0.52 0.52 0.55 0.60 0.59 0.46 0.29 0.22 0.20 0.17 0.15 0.11 0.09 0.08 0.07 0.05 0.02 0.02 0.04 0.05 0.08 0.10 0.14
0.15 0.24 0.28 0.27 0.39 0.65 0.55 0.30 0.20 0.18 0.14 0.12 0.10 0.14 0.20 0.26 0.41 0.57 0.72 0.87 0.97 0.99 0.87 0.76 0.69 0.62 0.62 0.67 0.64 0.78 0.90 0.68 0.46 0.34 0.32 0.27 0.22 0.17 0.14 0.10 0.07 0.04 0.02 0.02 0.03 0.04 0.06 0.07 0.09
0.08 0.11 0.22 0.34 0.45 0.69 0.53 0.29 0.20 0.16 0.13 0.11 0.10 0.16 0.29 0.31 0.42 0.60 0.77 0.89 0.94 0.99 0.91 0.90 0.97 0.96 0.93 0.92 0.98 1.08 1.37 1.22 0.80 0.57 0.44 0.38 0.28 0.21 0.19 0.13 0.09 0.06 0.04 0.03 0.03 0.03 0.04 0.06 0.08
0.08 0.13 0.36 0.63 0.62 0.51 0.37 0.27 0.20 0.13 0.12 0.09 0.10 0.17 0.24 0.29 0.38 0.45 0.57 0.66 0.72 0.76 0.79 0.85 0.91 0.93 0.96 0.94 1.09 1.31 1.57 1.60 1.22 0.90 0.71 0.54 0.34 0.32 0.29 0.17 0.15 0.11 0.07 0.06 0.04 0.04 0.04 0.06 0.07
0.08 0.16 0.39 0.61 0.49 0.27 0.22 0.22 0.18 0.17 0.15 0.13 0.15 0.20 0.23 0.28 0.39 0.45 0.51 0.60 0.61 0.58 0.56 0.57 0.61 0.66 0.71 0.76 1.02 1.24 1.29 1.45 1.21 1.15 0.99 0.80 0.71 0.62 0.39 0.27 0.28 0.25 0.17 0.12 0.09 0.06 0.04 0.03 0.04
0.08 0.12 0.18 0.28 0.24 0.14 0.13 0.14 0.13 0.14 0.14 0.12 0.14 0.21 0.28 0.32 0.39 0.44 0.47 0.50 0.52 0.54 0.51 0.45 0.46 0.48 0.53 0.66 0.87 1.08 1.21 1.36 1.34 1.30 1.22 1.17 1.05 0.69 0.48 0.49 0.44 0.36 0.29 0.21 0.16 0.12 0.06 0.03 0.03
0.08 0.09 0.09 0.12 0.14 0.13 0.12 0.09 0.08 0.08 0.08 0.07 0.10 0.16 0.25 0.34 0.36 0.36 0.39 0.42 0.45 0.49 0.56 0.49 0.37 0.37 0.38 0.46 0.65 0.85 1.05 1.23 1.27 1.08 0.97 1.05 1.00 0.76 0.60 0.68 0.67 0.54 0.40 0.32 0.26 0.17 0.11 0.05 0.02
0.08 0.12 0.11 0.12 0.14 0.15 0.11 0.08 0.07 0.07 0.06 0.07 0.11 0.19 0.29 0.38 0.41 0.40 0.37 0.39 0.40 0.46 0.54 0.56 0.48 0.40 0.39 0.43 0.51 0.58 0.87 1.04 1.18 1.21 0.98 1.07 1.04 0.91 0.74 0.63 0.72 0.63 0.53 0.45 0.37 0.29 0.19 0.11 0.06
0.08 0.11 0.10 0.13 0.13 0.14 0.12 0.10 0.11 0.10 0.10 0.09 0.12 0.21 0.30 0.38 0.43 0.45 0.41 0.38 0.36 0.40 0.47 0.52 0.55 0.54 0.50 0.49 0.51 0.51 0.56 0.67 0.78 0.73 0.69 0.86 0.93 0.85 0.79 0.61 0.58 0.62 0.66 0.70 0.64 0.46 0.31 0.20 0.11
0.05 0.08 0.12 0.12 0.13 0.13 0.15 0.15 0.13 0.12 0.13 0.14 0.12 0.17 0.24 0.30 0.33 0.37 0.37 0.35 0.34 0.39 0.42 0.47 0.54 0.61 0.62 0.63 0.71 0.63 0.59 0.64 0.63 0.58 0.59 0.67 0.74 0.75 0.81 0.72 0.59 0.57 0.70 0.79 0.74 0.60 0.44 0.26 0.14
0.06 0.12 0.22 0.16 0.16 0.21 0.24 0.19 0.11 0.13 0.11 0.11 0.09 0.11 0.16 0.20 0.25 0.29 0.33 0.35 0.35 0.37 0.37 0.39 0.43 0.48 0.53 0.60 0.68 0.72 0.72 0.75 0.70 0.71 0.66 0.61 0.72 0.83 0.90 0.86 0.71 0.65 0.75 0.83 0.82 0.73 0.60 0.42 0.25
0.06 0.10 0.15 0.12 0.13 0.15 0.14 0.13 0.09 0.09 0.07 0.06 0.05 0.05 0.07 0.10 0.16 0.20 0.24 0.30 0.34 0.35 0.32 0.31 0.32 0.32 0.35 0.42 0.53 0.65 0.71 0.78 0.83 0.84 0.80 0.77 0.80 0.82 0.91 0.99 0.96 0.92 0.91 0.90 0.86 0.74 0.62 0.49 0.37
0.03 0.03 0.04 0.06 0.06 0.08 0.09 0.10 0.09 0.05 0.03 0.03 0.03 0.03 0.03 0.03 0.06 0.10 0.15 0.23 0.27 0.29 0.30 0.30 0.31 0.30 0.26 0.30 0.43 0.54 0.59 0.66 0.80 0.87 0.92 1.19 1.27 1.07 0.99 1.04 1.03 1.00 1.01 0.99 1.03 1.03 0.85 0.61 0.49
0.02 0.02 0.01 0.02 0.02 0.02 0.02 0.03 0.04 0.02 0.01 0.01 0.01 0.01 0.02 0.01 0.01 0.02 0.03 0.08 0.14 0.15 0.14 0.18 0.24 0.30 0.28 0.24 0.30 0.41 0.50 0.62 0.74 0.89 0.97 1.20 1.27 1.18 1.19 1.17 1.12 1.06 1.02 1.04 1.18 1.30 1.15 0.90 0.68
0.02 0.01 0.01 0.01 0.01 0.01 0.01 0.01 0.03 0.02 0.02 0.01 0.01 0.01 0.01 0.01 0.01 0.01 0.01 0.02 0.02 0.05 0.07 0.10 0.15 0.24 0.31 0.33 0.38 0.51 0.68 0.80 0.87 1.00 1.06 1.18 1.16 1.14 1.08 1.20 1.28 1.20 1.22 1.26 1.35 1.42 1.39 1.19 0.93
0.00 0.00 0.00 0.00 0.00 0.00 0.00 0.01 0.02 0.03 0.03 0.02 0.02 0.03 0.03 0.03 0.02 0.02 0.01 0.02 0.02 0.03 0.05 0.11 0.19 0.32 0.49 0.64 0.85 1.10 1.37 1.48 1.37 1.22 1.29 1.42 1.47 1.41 1.32 1.38 1.49 1.38 1.37 1.37 1.39 1.38 1.54 1.55 1.33
0.00 0.00 0.00 0.01 0.01 0.00 0.00 0.01 0.02 0.05 0.06 0.07 0.08 0.09 0.09 0.07 0.06 0.06 0.04 0.05 0.07 0.11 0.17 0.28 0.40 0.57 0.73 0.93 1.15 1.40 1.63 1.79 1.82 1.84 1.86 1.83 1.77 1.64 1.52 1.50 1.52 1.51 1.52 1.42 1.32 1.38 1.61 1.87 1.78
0.00 0.00 0.00 0.00 0.01 0.01 0.00 0.01 0.05 0.11 0.17 0.22 0.25 0.25 0.23 0.19 0.19 0.18 0.16 0.15 0.18 0.28 0.41 0.53 0.76 0.92 1.06 1.13 1.22 1.44 1.55 1.62 1.73 1.88 1.92 1.90 1.80 1.67 1.53 1.47 1.47 1.50 1.56 1.52 1.54 1.62 1.79 1.94 2.05
0.00 0.00 0.00 0.00 0.01 0.01 0.00 0.05 0.14 0.24 0.32 0.40 0.40 0.36 0.33 0.26 0.23 0.26 0.29 0.30 0.35 0.57 0.81 0.96 1.07 1.16 1.15 1.14 1.16 1.29 1.43 1.52 1.60 1.72 1.79 1.72 1.56 1.50 1.48 1.46 1.39 1.32 1.36 1.45 1.60 1.79 1.84 1.92 2.05
0.00 0.00 0.01 0.01 0.02 0.03 0.03 0.12 0.26 0.28 0.27 0.31 0.34 0.33 0.29 0.22 0.19 0.23 0.33 0.45 0.65 0.90 1.14 1.28 1.28 1.18 1.04 1.02 1.09 1.15 1.29 1.44 1.47 1.48 1.50 1.45 1.38 1.32 1.33 1.34 1.28 1.16 1.13 1.23 1.39 1.58 1.60 1.65 1.75
0.00 0.00 0.03 0.04 0.03 0.06 0.11 0.27 0.38 0.30 0.21 0.17 0.18 0.18 0.20 0.24 0.30 0.32 0.38 0.57 0.85 1.12 1.37 1.64 1.62 1.38 1.16 1.10 1.17 1.18 1.27 1.33 1.31 1.25 1.25 1.26 1.22 1.17 1.09 1.10 1.11 1.07 1.04 1.05 1.13 1.20 1.26 1.34 1.46
0.00 0.01 0.03 0.08 0.05 0.06 0.12 0.27 0.29 0.20 0.15 0.13 0.15 0.18 0.24 0.31 0.41 0.49 0.61 0.71 0.91 1.14 1.47 1.76 1.82 1.61 1.46 1.37 1.31 1.31 1.21 1.12 1.05 0.97 0.96 0.99 1.00 0.93 0.88 0.95 1.03 1.09 0.99 0.91 0.95 0.98 1.01 1.11 1.18
0.01 0.02 0.05 0.13 0.13 0.12 0.15 0.24 0.20 0.11 0.10 0.13 0.19 0.24 0.29 0.37 0.43 0.58 0.84 1.05 1.27 1.23 1.37 1.60 1.54 1.48 1.45 1.47 1.46 1.35 1.20 1.07 1.03 0.95 0.92 0.89 0.93 0.84 0.84 0.87 0.88 0.88 0.84 0.87 0.93 0.99 1.05 1.04 1.06
0.03 0.05 0.06 0.12 0.17 0.20 0.28 0.34 0.22 0.18 0.20 0.26 0.32 0.35 0.38 0.46 0.51 0.65 0.82 0.97 1.16 1.27 1.29 1.33 1.32 1.33 1.29 1.22 1.18 1.06 0.86 0.75 0.76 0.77 0.73 0.68 0.71 0.65 0.68 0.66 0.69 0.79 0.77 0.76 0.84 0.88 0.87 0.91 0.98
0.10 0.12 0.12 0.20 0.26 0.31 0.45 0.50 0.33 0.33 0.38 0.45 0.52 0.54 0.58 0.59 0.62 0.72 0.80 0.95 1.04 1.05 1.09 1.17 1.10 1.09 1.04 0.93 0.84 0.72 0.57 0.51 0.56 0.57 0.52 0.44 0.47 0.44 0.51 0.55 0.53 0.69 0.84 0.85 0.86 0.85 0.79 0.77 0.78

GEFSSGP_prec_meanprecacc_066.txt.gz
Total_Precipitation_Accumulation
0.06 0.21 0.40 0.57 0.71 0.45 0.26 0.15 0.05 0.05 0.04 0.02 0.01 0.03 0.11 0.27 0.42 0.64 0.34 0.11 0.04 0.03 0.04 0.08 0.12 0.11 0.12 0.11 0.11 0.12 0.16 0.15 0.11 0.15 0.13 0.12 0.09 0.06 0.07 0.06 0.07 0.08 0.09 0.11 0.18 0.27 0.32 0.33 0.43
0.18 0.40 0.50 0.64 0.55 0.38 0.34 0.22 0.11 0.05 0.03 0.02 0.02 0.02 0.08 0.12 0.11 0.25 0.32 0.25 0.05 0.03 0.05 0.13 0.19 0.19 0.22 0.20 0.19 0.22 0.24 0.23 0.21 0.22 0.20 0.20 0.14 0.09 0.07 0.06 0.06 0.07 0.08 0.09 0.13 0.24 0.34 0.37 0.39
0.34 0.49 0.53 0.55 0.30 0.33 0.37 0.25 0.11 0.03 0.02 0.02 0.03 0.02 0.06 0.12 0.17 0.29 0.38 0.25 0.09 0.06 0.09 0.21 0.29 0.33 0.35 0.30 0.30 0.35 0.32 0.29 0.28 0.26 0.25 0.24 0.19 0.16 0.10 0.06 0.06 0.06 0.08 0.10 0.10 0.18 0.28 0.36 0.39
0.30 0.43 0.49 0.41 0.35 0.32 0.28 0.21 0.10 0.06 0.05 0.01 0.02 0.05 0.06 0.14 0.27 0.33 0.30 0.24 0.17 0.14 0.17 0.27 0.35 0.43 0.45 0.34 0.36 0.43 0.38 0.33 0.27 0.21 0.21 0.21 0.17 0.16 0.10 0.09 0.09 0.07 0.07 0.09 0.10 0.15 0.22 0.30 0.36
0.28 0.39 0.43 0.39 0.43 0.38 0.28 0.21 0.11 0.09 0.10 0.03 0.03 0.09 0.11 0.18 0.30 0.34 0.36 0.31 0.32 0.29 0.24 0.29 0.45 0.50 0.48 0.43 0.47 0.55 0.48 0.40 0.30 0.23 0.22 0.20 0.18 0.16 0.12 0.11 0.10 0.08 0.08 0.07 0.08 0.10 0.15 0.20 0.27
0.30 0.40 0.48 0.50 0.57 0.51 0.41 0.26 0.17 0.14 0.10 0.06 0.07 0.13 0.15 0.23 0.40 0.49 0.52 0.61 0.64 0.61 0.47 0.43 0.55 0.58 0.56 0.57 0.61 0.67 0.67 0.54 0.37 0.30 0.28 0.25 0.22 0.19 0.15 0.14 0.12 0.09 0.06 0.07 0.07 0.08 0.10 0.11 0.15
0.25 0.34 0.37 0.34 0.48 0.72 0.57 0.30 0.20 0.18 0.16 0.13 0.11 0.18 0.26 0.30 0.43 0.58 0.73 0.88 0.98 1.00 0.88 0.77 0.71 0.64 0.65 0.70 0.68 0.83 0.96 0.79 0.57 0.45 0.42 0.35 0.30 0.24 0.20 0.15 0.12 0.08 0.06 0.06 0.07 0.07 0.07 0.08 0.10
0.10 0.15 0.28 0.39 0.52 0.76 0.54 0.29 0.20 0.16 0.14 0.11 0.11 0.19 0.32 0.32 0.43 0.60 0.78 0.89 0.95 1.00 0.92 0.91 0.98 0.97 0.96 0.96 1.01 1.13 1.43 1.29 0.90 0.67 0.54 0.48 0.37 0.30 0.27 0.20 0.16 0.12 0.09 0.08 0.08 0.07 0.06 0.07 0.09
0.08 0.19 0.47 0.70 0.66 0.54 0.37 0.27 0.20 0.13 0.12 0.09 0.10 0.17 0.24 0.29 0.38 0.46 0.57 0.67 0.73 0.76 0.80 0.86 0.92 0.93 0.97 0.95 1.12 1.36 1.63 1.68 1.31 1.01 0.82 0.65 0.43 0.45 0.46 0.32 0.30 0.23 0.17 0.14 0.12 0.09 0.07 0.07 0.08
0.08 0.23 0.49 0.65 0.49 0.27 0.23 0.22 0.18 0.17 0.16 0.13 0.15 0.20 0.23 0.28 0.39 0.45 0.51 0.60 0.61 0.59 0.56 0.58 0.61 0.67 0.72 0.77 1.04 1.26 1.33 1.52 1.30 1.26 1.09 0.92 0.84 0.77 0.55 0.47 0.48 0.44 0.33 0.23 0.16 0.13 0.08 0.05 0.05
0.10 0.15 0.22 0.30 0.24 0.14 0.13 0.14 0.13 0.14 0.16 0.13 0.14 0.21 0.28 0.32 0.39 0.44 0.47 0.50 0.52 0.54 0.51 0.45 0.46 0.48 0.54 0.67 0.88 1.10 1.23 1.40 1.41 1.38 1.32 1.30 1.20 0.83 0.62 0.66 0.64 0.57 0.48 0.36 0.31 0.21 0.12 0.07 0.06
0.09 0.09 0.09 0.12 0.14 0.13 0.12 0.09 0.08 0.08 0.09 0.07 0.11 0.16 0.25 0.34 0.36 0.36 0.39 0.42 0.45 0.49 0.56 0.49 0.37 0.37 0.39 0.47 0.66 0.86 1.07 1.26 1.30 1.13 1.04 1.15 1.14 0.90 0.73 0.83 0.87 0.78 0.65 0.58 0.54 0.41 0.26 0.14 0.08
0.12 0.14 0.11 0.12 0.14 0.15 0.11 0.08 0.07 0.07 0.06 0.07 0.11 0.19 0.29 0.38 0.41 0.40 0.37 0.39 0.40 0.46 0.54 0.56 0.48 0.40 0.39 0.44 0.51 0.58 0.87 1.05 1.20 1.24 1.01 1.13 1.14 1.03 0.86 0.77 0.90 0.84 0.77 0.71 0.65 0.53 0.39 0.25 0.14
0.15 0.15 0.11 0.13 0.13 0.14 0.12 0.10 0.11 0.10 0.10 0.09 0.12 0.21 0.30 0.38 0.43 0.45 0.41 0.38 0.36 0.40 0.47 0.52 0.55 0.54 0.50 0.49 0.51 0.51 0.56 0.67 0.79 0.75 0.71 0.89 0.98 0.93 0.90 0.74 0.74 0.80 0.86 0.96 0.93 0.69 0.52 0.37 0.23
0.06 0.08 0.12 0.13 0.14 0.15 0.15 0.16 0.13 0.12 0.13 0.14 0.12 0.17 0.24 0.30 0.33 0.37 0.37 0.35 0.34 0.39 0.42 0.47 0.54 0.61 0.62 0.63 0.71 0.63 0.59 0.64 0.63 0.59 0.60 0.69 0.78 0.79 0.89 0.80 0.72 0.72 0.89 1.00 1.01 0.86 0.71 0.49 0.31
0.06 0.12 0.24 0.18 0.19 0.23 0.24 0.20 0.11 0.13 0.11 0.11 0.09 0.11 0.16 0.20 0.25 0.29 0.33 0.35 0.35 0.37 0.37 0.39 0.43 0.48 0.53 0.60 0.68 0.72 0.72 0.75 0.71 0.72 0.67 0.62 0.74 0.85 0.94 0.91 0.79 0.76 0.90 1.01 1.05 1.01 0.91 0.69 0.49
0.08 0.16 0.19 0.16 0.15 0.15 0.15 0.13 0.09 0.09 0.07 0.06 0.05 0.05 0.07 0.10 0.16 0.20 0.24 0.30 0.34 0.35 0.32 0.31 0.32 0.32 0.35 0.42 0.53 0.65 0.71 0.79 0.85 0.85 0.82 0.78 0.82 0.84 0.94 1.04 1.02 1.00 1.02 1.03 1.03 0.97 0.88 0.76 0.60
0.09 0.11 0.10 0.08 0.07 0.08 0.09 0.10 0.09 0.05 0.03 0.03 0.03 0.03 0.03 0.03 0.06 0.10 0.15 0.23 0.27 0.29 0.30 0.30 0.31 0.30 0.27 0.31 0.44 0.55 0.61 0.69 0.85 0.91 0.97 1.22 1.29 1.08 1.01 1.07 1.06 1.06 1.09 1.09 1.17 1.21 1.04 0.84 0.73
0.06 0.03 0.02 0.02 0.02 0.02 0.02 0.03 0.04 0.02 0.01 0.01 0.01 0.01 0.02 0.01 0.01 0.02 0.03 0.08 0.14 0.15 0.14 0.18 0.24 0.31 0.29 0.26 0.32 0.43 0.52 0.65 0.78 0.93 1.01 1.23 1.30 1.21 1.22 1.20 1.16 1.11 1.07 1.11 1.28 1.44 1.30 1.07 0.88
0.04 0.02 0.01 0.01 0.01 0.01 0.01 0.01 0.03 0.02 0.02 0.01 0.01 0.01 0.01 0.01 0.01 0.01 0.01 0.02 0.02 0.05 0.07 0.10 0.15 0.24 0.32 0.35 0.40 0.53 0.70 0.82 0.90 1.02 1.09 1.21 1.21 1.18 1.11 1.24 1.32 1.24 1.26 1.30 1.41 1.52 1.52 1.32 1.12
0.01 0.01 0.00 0.00 0.00 0.00 0.00 0.01 0.02 0.03 0.03 0.02 0.02 0.03 0.03 0.03 0.02 0.02 0.01 0.02 0.02 0.03 0.05 0.11 0.19 0.33 0.50 0.66 0.88 1.12 1.40 1.51 1.40 1.25 1.31 1.45 1.51 1.45 1.35 1.42 1.54 1.44 1.43 1.42 1.46 1.45 1.64 1.66 1.46
0.00 0.00 0.00 0.01 0.01 0.00 0.00 0.01 0.02 0.05 0.06 0.07 0.08 0.09 0.09 0.07 0.06 0.06 0.04 0.05 0.07 0.11 0.17 0.28 0.40 0.57 0.74 0.95 1.17 1.42 1.66 1.82 1.84 1.85 1.88 1.85 1.80 1.67 1.55 1.54 1.56 1.56 1.59 1.49 1.39 1.47 1.71 1.98 1.88
0.00 0.00 0.00 0.00 0.01 0.01 0.00 0.01 0.05 0.11 0.17 0.22 0.25 0.25 0.23 0.19 0.19 0.18 0.16 0.15 0.18 0.28 0.41 0.53 0.76 0.93 1.06 1.13 1.23 1.45 1.56 1.63 1.74 1.88 1.93 1.91 1.82 1.69 1.55 1.49 1.49 1.54 1.61 1.58 1.61 1.72 1.91 2.07 2.16
0.00 0.00 0.00 0.00 0.01 0.01 0.00 0.05 0.14 0.24 0.32 0.40 0.40 0.36 0.33 0.26 0.23 0.26 0.29 0.30 0.35 0.57 0.81 0.96 1.07 1.16 1.16 1.14 1.16 1.30 1.43 1.52 1.60 1.73 1.79 1.72 1.58 1.52 1.49 1.47 1.41 1.34 1.40 1.49 1.64 1.86 1.94 2.04 2.17
0.00 0.00 0.01 0.01 0.02 0.03 0.03 0.12 0.26 0.28 0.27 0.31 0.34 0.33 0.29 0.22 0.19 0.23 0.33 0.45 0.65 0.90 1.14 1.28 1.28 1.18 1.04 1.02 1.09 1.15 1.30 1.44 1.48 1.49 1.51 1.45 1.38 1.33 1.34 1.35 1.29 1.18 1.15 1.25 1.42 1.61 1.66 1.74 1.87
0.00 0.00 0.03 0.04 0.03 0.06 0.11 0.27 0.38 0.30 0.21 0.17 0.18 0.18 0.20 0.24 0.30 0.32 0.38 0.57 0.85 1.12 1.37 1.64 1.62 1.38 1.16 1.10 1.17 1.18 1.27 1.33 1.31 1.25 1.26 1.26 1.22 1.17 1.09 1.12 1.13 1.10 1.07 1.07 1.15 1.24 1.30 1.39 1.53
0.00 0.01 0.03 0.08 0.05 0.06 0.12 0.27 0.29 0.20 0.15 0.13 0.15 0.18 0.24 0.31 0.41 0.49 0.61 0.71 0.91 1.14 1.47 1.76 1.82 1.61 1.46 1.37 1.31 1.31 1.21 1.12 1.05 0.97 0.96 0.99 1.00 0.94 0.89 0.96 1.04 1.11 1.02 0.95 0.99 1.02 1.06 1.17 1.25
0.01 0.02 0.05 0.13 0.13 0.12 0.15 0.24 0.20 0.11 0.10 0.13 0.19 0.24 0.29 0.37 0.43 0.58 0.84 1.05 1.27 1.23 1.37 1.60 1.54 1.48 1.45 1.47 1.46 1.35 1.20 1.07 1.03 0.95 0.92 0.89 0.94 0.85 0.85 0.88 0.88 0.89 0.87 0.90 0.98 1.04 1.11 1.10 1.13
0.03 0.05 0.06 0.12 0.17 0.20 0.28 0.34 0.22 0.18 0.20 0.26 0.32 0.35 0.38 0.46 0.51 0.65 0.82 0.97 1.16 1.27 1.29 1.33 1.32 1.33 1.29 1.22 1.18 1.06 0.86 0.75 0.76 0.77 0.73 0.68 0.71 0.66 0.68 0.66 0.69 0.80 0.79 0.78 0.87 0.92 0.93 0.98 1.06
0.10 0.12 0.12 0.20 0.26 0.31 0.45 0.50 0.33 0.33 0.38 0.45 0.52 0.54 0.58 0.59 0.62 0.72 0.80 0.95 1.04 1.05 1.09 1.17 1.10 1.09 1.04 0.93 0.84 0.72 0.57 0.51 0.56 0.57 0.52 0.44 0.47 0.44 0.51 0.55 0.54 0.69 0.85 0.87 0.89 0.89 0.83 0.83 0.85

GEFSSGP_prec_meanprecacc_072.txt.gz
Total_Precipitation_Accumulation
0.18 0.39 0.79 1.19 1.19 0.77 0.46 0.28 0.12 0.08 0.05 0.03 0.02 0.03 0.13 0.33 0.51 0.71 0.52 0.38 0.25 0.17 0.12 0.16 0.20 0.16 0.13 0.13 0.12 0.13 0.17 0.16 0.12 0.16 0.14 0.14 0.11 0.08 0.07 0.07 0.07 0.08 0.09 0.11 0.18 0.28 0.33 0.35 0.44
0.31 0.70 1.01 1.40 1.05 0.63 0.55 0.36 0.16 0.08 0.04 0.03 0.02 0.03 0.09 0.15 0.14 0.33 0.58 0.59 0.27 0.16 0.13 0.19 0.24 0.23 0.23 0.21 0.20 0.23 0.26 0.23 0.22 0.24 0.21 0.22 0.17 0.12 0.09 0.07 0.07 0.08 0.08 0.10 0.14 0.25 0.34 0.38 0.40
0.62 1.05 1.24 1.19 0.68 0.57 0.55 0.34 0.16 0.06 0.03 0.02 0.03 0.03 0.06 0.14 0.20 0.37 0.57 0.49 0.26 0.15 0.14 0.27 0.35 0.36 0.37 0.32 0.32 0.36 0.33 0.30 0.29 0.27 0.25 0.26 0.21 0.19 0.13 0.08 0.08 0.09 0.10 0.12 0.12 0.19 0.29 0.37 0.40
0.64 1.00 1.11 0.82 0.72 0.65 0.46 0.28 0.14 0.09 0.06 0.02 0.03 0.05 0.07 0.19 0.31 0.41 0.42 0.38 0.29 0.24 0.22 0.32 0.39 0.46 0.47 0.36 0.37 0.44 0.39 0.34 0.28 0.22 0.22 0.22 0.19 0.19 0.13 0.10 0.11 0.09 0.10 0.11 0.12 0.16 0.23 0.31 0.37
0.69 0.91 0.83 0.64 0.73 0.59 0.37 0.26 0.14 0.10 0.10 0.04 0.03 0.10 0.12 0.26 0.37 0.41 0.44 0.39 0.40 0.36 0.28 0.32 0.48 0.52 0.50 0.45 0.49 0.56 0.49 0.42 0.32 0.25 0.24 0.22 0.20 0.19 0.15 0.13 0.11 0.10 0.09 0.09 0.10 0.12 0.17 0.22 0.28
0.67 0.77 0.75 0.68 0.73 0.63 0.47 0.31 0.19 0.15 0.10 0.07 0.07 0.15 0.17 0.29 0.45 0.53 0.56 0.65 0.67 0.64 0.49 0.44 0.57 0.60 0.58 0.60 0.64 0.70 0.70 0.57 0.41 0.33 0.33 0.28 0.26 0.22 0.19 0.17 0.14 0.11 0.08 0.08 0.09 0.10 0.11 0.12 0.15
0.56 0.62 0.58 0.48 0.57 0.80 0.61 0.33 0.22 0.19 0.17 0.14 0.11 0.19 0.28 0.35 0.45 0.59 0.74 0.89 0.99 1.01 0.89 0.78 0.72 0.66 0.67 0.73 0.71 0.86 0.99 0.82 0.61 0.50 0.48 0.41 0.35 0.29 0.24 0.18 0.15 0.12 0.09 0.08 0.09 0.09 0.08 0.08 0.10
0.37 0.40 0.43 0.52 0.62 0.86 0.60 0.31 0.21 0.16 0.14 0.11 0.11 0.19 0.33 0.33 0.43 0.61 0.78 0.90 0.95 1.00 0.92 0.91 0.99 0.98 0.96 0.97 1.03 1.15 1.46 1.33 0.94 0.73 0.60 0.53 0.43 0.36 0.35 0.27 0.22 0.19 0.15 0.13 0.12 0.09 0.08 0.08 0.09
0.35 0.43 0.59 0.81 0.77 0.64 0.43 0.30 0.20 0.14 0.12 0.10 0.11 0.17 0.25 0.29 0.39 0.46 0.58 0.67 0.73 0.76 0.81 0.86 0.92 0.94 0.97 0.96 1.12 1.37 1.65 1.71 1.35 1.07 0.89 0.71 0.47 0.49 0.51 0.39 0.40 0.33 0.27 0.22 0.18 0.14 0.10 0.10 0.10
0.38 0.48 0.62 0.72 0.55 0.33 0.25 0.23 0.19 0.18 0.16 0.13 0.15 0.20 0.23 0.28 0.39 0.45 0.51 0.60 0.61 0.59 0.56 0.58 0.61 0.67 0.72 0.77 1.04 1.27 1.33 1.52 1.31 1.27 1.11 0.95 0.87 0.80 0.59 0.51 0.56 0.54 0.44 0.33 0.25 0.20 0.12 0.07 0.06
0.45 0.45 0.44 0.42 0.29 0.18 0.14 0.14 0.14 0.14 0.16 0.13 0.15 0.21 0.28 0.32 0.39 0.44 0.47 0.50 0.52 0.54 0.51 0.45 0.46 0.48 0.54 0.67 0.88 1.10 1.23 1.40 1.41 1.39 1.32 1.31 1.23 0.87 0.67 0.70 0.70 0.66 0.59 0.44 0.38 0.29 0.18 0.10 0.08
0.47 0.43 0.36 0.26 0.18 0.16 0.14 0.10 0.08 0.08 0.09 0.08 0.11 0.16 0.25 0.34 0.36 0.36 0.39 0.42 0.45 0.49 0.56 0.49 0.37 0.37 0.39 0.47 0.66 0.86 1.07 1.26 1.31 1.13 1.05 1.17 1.18 0.95 0.79 0.87 0.91 0.85 0.74 0.67 0.63 0.48 0.32 0.18 0.12
0.54 0.58 0.42 0.25 0.18 0.19 0.13 0.10 0.08 0.08 0.06 0.07 0.11 0.19 0.29 0.38 0.41 0.40 0.37 0.39 0.40 0.46 0.54 0.56 0.48 0.40 0.39 0.44 0.51 0.58 0.87 1.05 1.20 1.24 1.03 1.14 1.17 1.07 0.91 0.81 0.94 0.89 0.83 0.78 0.75 0.62 0.46 0.32 0.21
0.55 0.52 0.30 0.21 0.21 0.20 0.15 0.12 0.12 0.11 0.11 0.09 0.12 0.21 0.30 0.38 0.43 0.45 0.41 0.39 0.36 0.40 0.47 0.52 0.55 0.54 0.50 0.49 0.51 0.51 0.56 0.67 0.79 0.75 0.72 0.90 1.00 0.96 0.94 0.77 0.78 0.84 0.92 1.02 1.00 0.76 0.59 0.44 0.31
0.30 0.29 0.28 0.25 0.26 0.24 0.19 0.18 0.13 0.13 0.13 0.14 0.12 0.17 0.24 0.30 0.33 0.37 0.37 0.35 0.34 0.39 0.42 0.47 0.54 0.61 0.62 0.63 0.71 0.64 0.59 0.64 0.63 0.59 0.60 0.70 0.79 0.81 0.91 0.83 0.77 0.78 0.94 1.06 1.08 0.94 0.79 0.57 0.41
0.27 0.31 0.44 0.38 0.35 0.31 0.27 0.21 0.12 0.14 0.12 0.11 0.09 0.11 0.16 0.20 0.25 0.29 0.33 0.35 0.35 0.37 0.37 0.39 0.43 0.48 0.53 0.60 0.68 0.73 0.73 0.75 0.71 0.72 0.68 0.63 0.75 0.87 0.96 0.94 0.82 0.81 0.97 1.08 1.11 1.09 1.00 0.80 0.63
0.26 0.31 0.33 0.30 0.28 0.23 0.18 0.14 0.09 0.09 0.08 0.06 0.05 0.05 0.07 0.10 0.16 0.20 0.24 0.30 0.34 0.35 0.32 0.31 0.32 0.32 0.35 0.42 0.54 0.65 0.71 0.80 0.85 0.86 0.82 0.80 0.83 0.85 0.95 1.06 1.05 1.04 1.07 1.09 1.09 1.04 0.96 0.84 0.69
0.25 0.21 0.17 0.15 0.10 0.12 0.11 0.11 0.10 0.06 0.03 0.03 0.03 0.03 0.03 0.03 0.06 0.10 0.15 0.23 0.27 0.29 0.30 0.30 0.31 0.30 0.27 0.31 0.45 0.55 0.61 0.69 0.85 0.92 0.98 1.24 1.31 1.10 1.03 1.09 1.08 1.09 1.12 1.13 1.22 1.27 1.11 0.91 0.84
0.17 0.09 0.05 0.04 0.04 0.04 0.03 0.04 0.05 0.03 0.01 0.01 0.01 0.01 0.02 0.01 0.01 0.02 0.03 0.08 0.14 0.15 0.14 0.18 0.24 0.31 0.29 0.26 0.32 0.43 0.52 0.66 0.79 0.95 1.02 1.25 1.33 1.23 1.23 1.21 1.16 1.12 1.09 1.14 1.31 1.49 1.37 1.15 0.99
0.11 0.06 0.03 0.02 0.02 0.02 0.01 0.02 0.03 0.02 0.02 0.01 0.01 0.01 0.01 0.01 0.01 0.01 0.01 0.02 0.02 0.05 0.07 0.10 0.15 0.24 0.32 0.35 0.40 0.53 0.70 0.82 0.91 1.04 1.10 1.22 1.22 1.20 1.12 1.25 1.32 1.25 1.27 1.31 1.43 1.55 1.56 1.39 1.21
0.05 0.04 0.03 0.01 0.01 0.00 0.00 0.01 0.02 0.03 0.03 0.02 0.02 0.03 0.03 0.03 0.02 0.02 0.01 0.02 0.02 0.03 0.05 0.11 0.19 0.33 0.50 0.66 0.88 1.12 1.40 1.51 1.41 1.25 1.32 1.45 1.51 1.45 1.36 1.43 1.54 1.44 1.43 1.43 1.47 1.48 1.68 1.70 1.53
0.02 0.01 0.01 0.01 0.01 0.00 0.00 0.01 0.02 0.05 0.06 0.07 0.08 0.09 0.09 0.07 0.06 0.06 0.04 0.05 0.07 0.11 0.17 0.28 0.40 0.57 0.74 0.95 1.17 1.43 1.66 1.82 1.84 1.85 1.88 1.85 1.80 1.67 1.56 1.54 1.56 1.57 1.59 1.49 1.40 1.49 1.74 2.01 1.93
0.01 0.00 0.00 0.00 0.01 0.01 0.00 0.01 0.05 0.11 0.17 0.22 0.25 0.25 0.23 0.19 0.19 0.18 0.16 0.15 0.18 0.28 0.41 0.53 0.76 0.93 1.06 1.13 1.23 1.45 1.56 1.63 1.74 1.88 1.93 1.91 1.82 1.69 1.55 1.49 1.50 1.54 1.61 1.58 1.61 1.73 1.93 2.09 2.19
0.00 0.00 0.00 0.00 0.01 0.01 0.00 0.05 0.14 0.24 0.32 0.40 0.40 0.36 0.33 0.26 0.23 0.26 0.29 0.30 0.35 0.57 0.81 0.96 1.07 1.16 1.16 1.14 1.16 1.30 1.43 1.52 1.60 1.73 1.79 1.72 1.58 1.52 1.50 1.48 1.41 1.34 1.40 1.49 1.64 1.86 1.94 2.05 2.19
0.00 0.00 0.01 0.01 0.02 0.03 0.03 0.12 0.26 0.28 0.27 0.31 0.34 0.33 0.29 0.22 0.19 0.23 0.33 0.45 0.65 0.90 1.14 1.28 1.28 1.18 1.04 1.02 1.09 1.15 1.30 1.44 1.48 1.49 1.51 1.45 1.38 1.33 1.34 1.36 1.29 1.18 1.15 1.25 1.42 1.62 1.66 1.74 1.88
0.00 0.00 0.03 0.04 0.03 0.06 0.11 0.27 0.38 0.30 0.21 0.17 0.18 0.18 0.20 0.24 0.30 0.32 0.38 0.57 0.85 1.12 1.37 1.64 1.62 1.38 1.16 1.10 1.17 1.18 1.27 1.33 1.31 1.25 1.26 1.26 1.22 1.17 1.09 1.12 1.13 1.10 1.07 1.08 1.16 1.24 1.31 1.40 1.54
0.00 0.01 0.03 0.08 0.05 0.06 0.12 0.27 0.29 0.20 0.15 0.13 0.15 0.18 0.24 0.31 0.41 0.49 0.61 0.71 0.91 1.14 1.47 1.76 1.82 1.61 1.46 1.37 1.31 1.31 1.21 1.12 1.05 0.97 0.96 0.99 1.00 0.94 0.89 0.96 1.05 1.11 1.03 0.95 1.00 1.03 1.06 1.17 1.26
0.01 0.02 0.05 0.13 0.13 0.12 0.15 0.24 0.20 0.11 0.10 0.13 0.19 0.24 0.29 0.37 0.43 0.58 0.84 1.05 1.27 1.23 1.37 1.60 1.54 1.48 1.45 1.47 1.46 1.35 1.20 1.07 1.03 0.95 0.92 0.89 0.94 0.85 0.85 0.88 0.88 0.89 0.87 0.90 0.98 1.05 1.11 1.11 1.14
0.03 0.05 0.06 0.12 0.17 0.20 0.28 0.34 0.22 0.18 0.20 0.26 0.32 0.35 0.38 0.46 0.51 0.65 0.82 0.97 1.16 1.27 1.29 1.33 1.32 1.33 1.29 1.22 1.18 1.06 0.86 0.75 0.76 0.77 0.73 0.68 0.71 0.66 0.68 0.66 0.70 0.80 0.79 0.79 0.87 0.92 0.93 0.98 1.07
0.10 0.12 0.12 0.20 0.26 0.31 0.45 0.50 0.33 0.33 0.38 0.45 0.52 0.54 0.58 0.59 0.62 0.72 0.80 0.95 1.04 1.05 1.09 1.17 1.10 1.09 1.04 0.93 0.84 0.72 0.57 0.51 0.56 0.57 0.52 0.44 0.47 0.44 0.51 0.55 0.54 0.69 0.85 0.87 0.89 0.89 0.84 0.85 0.86

GEFSSGP_prec_meanprecacc_078.txt.gz
Total_Precipitation_Accumulation
0.51 0.70 1.16 1.62 1.47 0.96 0.59 0.33 0.16 0.13 0.09 0.05 0.02 0.03 0.13 0.35 0.52 0.74 0.58 0.52 0.40 0.27 0.19 0.25 0.32 0.28 0.23 0.20 0.17 0.16 0.20 0.18 0.15 0.18 0.16 0.15 0.12 0.09 0.08 0.07 0.08 0.09 0.09 0.12 0.18 0.28 0.34 0.36 0.45
0.56 0.99 1.37 1.81 1.30 0.74 0.64 0.41 0.21 0.13 0.06 0.04 0.03 0.03 0.09 0.16 0.15 0.36 0.64 0.73 0.38 0.25 0.21 0.27 0.37 0.36 0.36 0.32 0.29 0.30 0.30 0.27 0.25 0.26 0.23 0.23 0.18 0.14 0.11 0.09 0.08 0.09 0.09 0.10 0.15 0.25 0.34 0.39 0.41
0.88 1.47 1.71 1.49 0.83 0.64 0.60 0.40 0.23 0.13 0.07 0.04 0.04 0.03 0.06 0.15 0.22 0.40 0.63 0.59 0.38 0.27 0.26 0.40 0.52 0.51 0.50 0.44 0.44 0.46 0.42 0.38 0.35 0.32 0.30 0.30 0.25 0.23 0.16 0.11 0.11 0.11 0.12 0.14 0.14 0.20 0.30 0.37 0.41
0.91 1.50 1.50 1.01 0.81 0.71 0.50 0.33 0.20 0.14 0.09 0.03 0.03 0.05 0.07 0.20 0.34 0.44 0.47 0.46 0.42 0.38 0.34 0.45 0.55 0.59 0.58 0.47 0.48 0.55 0.50 0.45 0.39 0.32 0.31 0.31 0.26 0.25 0.19 0.17 0.16 0.13 0.13 0.14 0.15 0.19 0.25 0.31 0.37
1.06 1.36 1.11 0.80 0.82 0.65 0.41 0.31 0.19 0.15 0.14 0.04 0.03 0.10 0.13 0.27 0.40 0.45 0.48 0.43 0.45 0.43 0.34 0.38 0.57 0.61 0.59 0.55 0.58 0.65 0.59 0.52 0.41 0.35 0.36 0.34 0.31 0.30 0.25 0.23 0.20 0.17 0.14 0.13 0.15 0.15 0.19 0.24 0.29
1.03 1.10 0.92 0.79 0.82 0.70 0.53 0.35 0.23 0.19 0.12 0.07 0.07 0.15 0.18 0.29 0.46 0.55 0.59 0.68 0.71 0.68 0.52 0.47 0.61 0.65 0.64 0.66 0.71 0.78 0.78 0.66 0.49 0.43 0.44 0.42 0.40 0.36 0.33 0.30 0.27 0.21 0.16 0.15 0.15 0.14 0.15 0.16 0.19
0.88 0.88 0.74 0.59 0.65 0.87 0.66 0.37 0.26 0.22 0.18 0.15 0.11 0.20 0.28 0.35 0.46 0.61 0.76 0.91 1.01 1.03 0.91 0.80 0.74 0.68 0.70 0.76 0.75 0.91 1.04 0.88 0.68 0.58 0.58 0.51 0.46 0.42 0.37 0.32 0.30 0.26 0.22 0.20 0.18 0.16 0.14 0.14 0.15
0.61 0.58 0.57 0.62 0.71 0.92 0.65 0.37 0.26 0.19 0.16 0.12 0.11 0.19 0.33 0.33 0.44 0.61 0.79 0.90 0.96 1.01 0.93 0.92 1.00 0.99 0.97 0.98 1.05 1.17 1.49 1.36 0.98 0.78 0.66 0.60 0.52 0.46 0.46 0.38 0.36 0.37 0.34 0.30 0.28 0.22 0.18 0.19 0.19
0.55 0.58 0.69 0.90 0.85 0.70 0.48 0.34 0.24 0.15 0.13 0.10 0.11 0.17 0.25 0.29 0.39 0.46 0.58 0.67 0.73 0.76 0.81 0.87 0.92 0.94 0.97 0.96 1.12 1.38 1.66 1.72 1.38 1.09 0.94 0.76 0.52 0.54 0.58 0.48 0.54 0.52 0.48 0.45 0.41 0.33 0.27 0.25 0.21
0.55 0.60 0.71 0.79 0.60 0.38 0.31 0.29 0.23 0.19 0.17 0.14 0.15 0.20 0.23 0.29 0.39 0.45 0.51 0.60 0.61 0.59 0.56 0.58 0.61 0.67 0.72 0.77 1.04 1.27 1.33 1.53 1.31 1.28 1.12 0.96 0.89 0.83 0.64 0.57 0.67 0.66 0.61 0.56 0.48 0.43 0.34 0.25 0.17
0.56 0.54 0.51 0.48 0.34 0.23 0.21 0.19 0.17 0.16 0.17 0.14 0.15 0.21 0.28 0.33 0.39 0.44 0.47 0.50 0.52 0.54 0.51 0.45 0.46 0.48 0.54 0.67 0.88 1.10 1.23 1.40 1.41 1.39 1.32 1.31 1.24 0.90 0.71 0.75 0.76 0.73 0.69 0.55 0.52 0.46 0.31 0.21 0.17
0.56 0.49 0.42 0.31 0.23 0.22 0.20 0.15 0.11 0.10 0.09 0.08 0.11 0.16 0.25 0.34 0.36 0.36 0.39 0.42 0.45 0.49 0.56 0.49 0.37 0.37 0.39 0.47 0.66 0.86 1.07 1.26 1.31 1.13 1.05 1.18 1.18 0.96 0.81 0.91 0.96 0.92 0.82 0.75 0.70 0.56 0.42 0.27 0.20
0.64 0.65 0.46 0.30 0.25 0.26 0.19 0.14 0.11 0.09 0.07 0.07 0.11 0.19 0.29 0.38 0.41 0.40 0.37 0.39 0.40 0.46 0.54 0.56 0.48 0.40 0.39 0.44 0.51 0.58 0.87 1.05 1.20 1.24 1.03 1.15 1.17 1.08 0.92 0.85 0.99 0.94 0.89 0.86 0.83 0.71 0.56 0.41 0.28
0.64 0.58 0.34 0.25 0.26 0.25 0.20 0.15 0.14 0.12 0.11 0.09 0.12 0.21 0.30 0.38 0.43 0.45 0.41 0.39 0.36 0.40 0.47 0.52 0.55 0.54 0.50 0.49 0.51 0.51 0.56 0.67 0.79 0.75 0.72 0.90 1.00 0.97 0.96 0.80 0.82 0.88 0.97 1.08 1.06 0.85 0.68 0.54 0.39
0.38 0.35 0.32 0.28 0.29 0.27 0.23 0.21 0.15 0.13 0.14 0.14 0.12 0.17 0.24 0.30 0.33 0.37 0.37 0.35 0.34 0.39 0.42 0.47 0.54 0.61 0.62 0.63 0.71 0.64 0.59 0.64 0.63 0.59 0.60 0.70 0.79 0.82 0.93 0.87 0.80 0.81 0.98 1.10 1.13 1.00 0.86 0.65 0.51
0.35 0.36 0.48 0.41 0.37 0.34 0.32 0.23 0.12 0.14 0.12 0.12 0.10 0.11 0.16 0.20 0.25 0.29 0.33 0.35 0.35 0.37 0.37 0.39 0.43 0.48 0.53 0.60 0.68 0.73 0.73 0.75 0.71 0.72 0.68 0.63 0.75 0.87 0.97 0.96 0.85 0.84 1.00 1.12 1.16 1.17 1.07 0.87 0.71
0.34 0.35 0.36 0.32 0.30 0.27 0.24 0.17 0.09 0.09 0.08 0.06 0.06 0.05 0.07 0.10 0.16 0.20 0.24 0.30 0.34 0.35 0.32 0.31 0.32 0.32 0.35 0.42 0.54 0.65 0.71 0.80 0.85 0.86 0.83 0.81 0.83 0.86 0.96 1.08 1.08 1.08 1.10 1.13 1.14 1.10 1.01 0.90 0.77
0.30 0.23 0.19 0.16 0.12 0.15 0.15 0.12 0.10 0.06 0.04 0.03 0.03 0.03 0.03 0.03 0.06 0.10 0.15 0.23 0.27 0.29 0.30 0.30 0.31 0.30 0.27 0.31 0.45 0.55 0.61 0.69 0.86 0.93 0.99 1.25 1.32 1.10 1.03 1.09 1.10 1.12 1.17 1.17 1.26 1.33 1.17 0.96 0.90
0.21 0.10 0.05 0.05 0.04 0.05 0.05 0.04 0.05 0.03 0.01 0.01 0.01 0.01 0.02 0.01 0.01 0.02 0.03 0.08 0.14 0.15 0.14 0.18 0.24 0.31 0.29 0.26 0.32 0.43 0.52 0.66 0.80 0.95 1.02 1.26 1.33 1.23 1.24 1.21 1.17 1.14 1.13 1.17 1.34 1.53 1.41 1.20 1.04
0.15 0.08 0.03 0.02 0.03 0.02 0.02 0.02 0.03 0.02 0.02 0.01 0.01 0.01 0.01 0.01 0.01 0.01 0.01 0.02 0.02 0.05 0.07 0.10 0.15 0.24 0.32 0.35 0.40 0.53 0.70 0.83 0.92 1.05 1.11 1.22 1.23 1.20 1.13 1.25 1.32 1.25 1.29 1.33 1.46 1.59 1.60 1.42 1.26
0.07 0.05 0.03 0.01 0.01 0.01 0.01 0.01 0.02 0.03 0.03 0.02 0.02 0.03 0.03 0.03 0.02 0.02 0.01 0.02 0.02 0.03 0.05 0.11 0.19 0.33 0.50 0.66 0.88 1.12 1.40 1.51 1.41 1.26 1.32 1.45 1.52 1.46 1.36 1.43 1.54 1.44 1.44 1.44 1.47 1.49 1.70 1.73 1.56
0.03 0.01 0.01 0.01 0.01 0.01 0.00 0.01 0.02 0.05 0.06 0.07 0.08 0.09 0.09 0.07 0.06 0.06 0.04 0.05 0.07 0.11 0.17 0.28 0.40 0.57 0.74 0.95 1.17 1.43 1.66 1.82 1.84 1.85 1.88 1.85 1.80 1.67 1.56 1.54 1.57 1.57 1.60 1.49 1.40 1.50 1.74 2.04 1.96
0.03 0.02 0.01 0.01 0.01 0.01 0.00 0.01 0.05 0.11 0.17 0.22 0.25 0.25 0.23 0.19 0.19 0.18 0.16 0.15 0.18 0.28 0.41 0.53 0.76 0.93 1.06 1.13 1.23 1.45 1.56 1.63 1.74 1.88 1.93 1.91 1.82 1.69 1.56 1.49 1.50 1.55 1.62 1.58 1.61 1.74 1.93 2.10 2.21
0.03 0.01 0.00 0.00 0.01 0.01 0.00 0.05 0.14 0.24 0.32 0.40 0.40 0.36 0.33 0.26 0.23 0.26 0.29 0.30 0.35 0.57 0.81 0.96 1.07 1.16 1.16 1.14 1.16 1.30 1.43 1.52 1.60 1.73 1.79 1.72 1.58 1.52 1.50 1.48 1.41 1.34 1.40 1.49 1.64 1.86 1.95 2.07 2.21
0.01 0.01 0.01 0.01 0.02 0.03 0.03 0.12 0.26 0.28 0.27 0.31 0.34 0.33 0.29 0.22 0.19 0.23 0.33 0.45 0.65 0.90 1.14 1.28 1.28 1.18 1.04 1.02 1.09 1.15 1.30 1.44 1.48 1.49 1.51 1.45 1.38 1.33 1.34 1.36 1.29 1.18 1.15 1.25 1.42 1.62 1.66 1.74 1.89
0.00 0.00 0.03 0.04 0.03 0.06 0.11 0.27 0.38 0.30 0.21 0.17 0.18 0.18 0.20 0.24 0.30 0.32 0.38 0.57 0.85 1.12 1.37 1.64 1.62 1.38 1.16 1.10 1.17 1.18 1.27 1.33 1.31 1.25 1.26 1.26 1.22 1.17 1.10 1.12 1.13 1.10 1.07 1.08 1.16 1.24 1.31 1.40 1.54
0.00 0.01 0.03 0.08 0.05 0.06 0.12 0.27 0.29 0.20 0.15 0.13 0.15 0.18 0.24 0.31 0.41 0.49 0.61 0.71 0.91 1.14 1.47 1.76 1.82 1.61 1.46 1.37 1.31 1.31 1.21 1.12 1.05 0.97 0.96 0.99 1.00 0.94 0.89 0.96 1.05 1.11 1.03 0.96 1.00 1.03 1.06 1.18 1.26
0.01 0.02 0.05 0.13 0.13 0.12 0.15 0.24 0.20 0.11 0.10 0.13 0.19 0.24 0.29 0.37 0.43 0.58 0.84 1.05 1.27 1.23 1.37 1.60 1.54 1.48 1.45 1.47 1.46 1.35 1.20 1.07 1.03 0.95 0.92 0.89 0.94 0.85 0.85 0.88 0.88 0.89 0.87 0.90 0.98 1.05 1.11 1.11 1.14
0.03 0.05 0.06 0.12 0.17 0.20 0.28 0.34 0.22 0.18 0.20 0.26 0.32 0.35 0.38 0.46 0.51 0.65 0.82 0.97 1.16 1.27 1.29 1.33 1.32 1.33 1.29 1.22 1.18 1.06 0.86 0.75 0.76 0.77 0.73 0.68 0.71 0.66 0.68 0.66 0.70 0.80 0.79 0.79 0.87 0.92 0.93 0.98 1.07
0.10 0.12 0.12 0.20 0.26 0.31 0.45 0.50 0.33 0.33 0.38 0.45 0.52 0.54 0.58 0.59 0.62 0.72 0.80 0.95 1.04 1.05 1.09 1.17 1.10 1.09 1.04 0.93 0.84 0.72 0.57 0.51 0.56 0.57 0.52 0.44 0.47 0.44 0.51 0.55 0.54 0.69 0.85 0.87 0.89 0.89 0.84 0.85 0.86

GEFSSGP_prec_meanprecacc_084.txt.gz
Total_Precipitation_Accumulation
0.86 0.93 1.28 1.77 1.59 1.08 0.67 0.40 0.22 0.18 0.13 0.07 0.03 0.05 0.15 0.37 0.56 0.78 0.62 0.55 0.44 0.32 0.23 0.30 0.40 0.37 0.33 0.31 0.28 0.27 0.31 0.29 0.24 0.25 0.22 0.21 0.17 0.14 0.14 0.12 0.12 0.11 0.12 0.14 0.20 0.30 0.35 0.37 0.46
0.78 1.10 1.46 1.94 1.42 0.84 0.69 0.45 0.26 0.18 0.08 0.05 0.03 0.03 0.10 0.17 0.16 0.38 0.69 0.80 0.41 0.28 0.25 0.32 0.44 0.43 0.44 0.41 0.39 0.42 0.42 0.37 0.35 0.37 0.32 0.30 0.24 0.20 0.17 0.15 0.13 0.14 0.14 0.17 0.21 0.29 0.37 0.41 0.43
1.03 1.56 1.81 1.59 0.92 0.71 0.66 0.46 0.29 0.18 0.08 0.05 0.04 0.03 0.07 0.16 0.23 0.44 0.71 0.64 0.41 0.31 0.31 0.46 0.59 0.58 0.56 0.50 0.51 0.56 0.52 0.48 0.46 0.44 0.42 0.42 0.36 0.32 0.25 0.21 0.20 0.19 0.21 0.23 0.23 0.28 0.36 0.42 0.44
0.99 1.60 1.60 1.10 0.89 0.76 0.55 0.38 0.24 0.18 0.11 0.03 0.03 0.05 0.07 0.21 0.36 0.50 0.54 0.49 0.45 0.42 0.38 0.49 0.60 0.66 0.65 0.54 0.54 0.62 0.57 0.54 0.48 0.42 0.43 0.43 0.39 0.38 0.33 0.33 0.32 0.27 0.27 0.27 0.27 0.30 0.33 0.38 0.43
1.16 1.49 1.21 0.89 0.88 0.69 0.45 0.34 0.22 0.19 0.17 0.05 0.03 0.10 0.13 0.27 0.41 0.48 0.51 0.45 0.46 0.44 0.35 0.40 0.61 0.65 0.63 0.60 0.63 0.71 0.65 0.59 0.49 0.44 0.47 0.47 0.44 0.42 0.40 0.39 0.38 0.35 0.31 0.29 0.29 0.28 0.30 0.33 0.38
1.16 1.21 1.04 0.90 0.89 0.76 0.57 0.38 0.26 0.22 0.15 0.08 0.07 0.16 0.18 0.30 0.47 0.56 0.61 0.69 0.71 0.68 0.53 0.48 0.63 0.67 0.65 0.68 0.73 0.80 0.82 0.70 0.57 0.52 0.51 0.48 0.48 0.47 0.45 0.44 0.43 0.40 0.36 0.35 0.33 0.30 0.28 0.27 0.30
1.02 1.01 0.88 0.69 0.73 0.94 0.71 0.40 0.30 0.26 0.21 0.16 0.11 0.20 0.28 0.35 0.47 0.62 0.77 0.92 1.01 1.04 0.92 0.80 0.74 0.68 0.70 0.77 0.75 0.92 1.07 0.91 0.72 0.64 0.63 0.55 0.50 0.47 0.45 0.43 0.46 0.44 0.42 0.40 0.38 0.36 0.30 0.27 0.27
0.71 0.68 0.67 0.71 0.79 0.99 0.69 0.42 0.30 0.23 0.18 0.12 0.11 0.20 0.34 0.34 0.44 0.61 0.79 0.90 0.96 1.01 0.93 0.92 1.00 0.99 0.97 0.98 1.05 1.18 1.50 1.37 1.00 0.80 0.68 0.62 0.53 0.49 0.51 0.47 0.49 0.52 0.50 0.50 0.51 0.45 0.38 0.35 0.34
0.64 0.68 0.79 1.00 0.94 0.78 0.52 0.39 0.28 0.18 0.15 0.11 0.11 0.17 0.25 0.29 0.39 0.46 0.58 0.67 0.73 0.76 0.81 0.87 0.92 0.94 0.97 0.96 1.12 1.38 1.66 1.73 1.38 1.10 0.94 0.77 0.53 0.55 0.60 0.51 0.60 0.63 0.62 0.62 0.62 0.57 0.49 0.45 0.39
0.65 0.71 0.77 0.85 0.66 0.44 0.35 0.32 0.25 0.21 0.19 0.16 0.16 0.20 0.23 0.29 0.39 0.45 0.51 0.60 0.61 0.59 0.56 0.58 0.61 0.67 0.72 0.77 1.04 1.27 1.33 1.53 1.31 1.28 1.12 0.96 0.89 0.84 0.65 0.60 0.72 0.74 0.73 0.71 0.71 0.70 0.57 0.44 0.33
0.64 0.61 0.54 0.50 0.37 0.26 0.24 0.21 0.18 0.17 0.19 0.14 0.15 0.21 0.28 0.33 0.39 0.44 0.47 0.50 0.52 0.54 0.51 0.45 0.46 0.48 0.54 0.67 0.88 1.10 1.23 1.40 1.41 1.39 1.33 1.32 1.25 0.91 0.74 0.80 0.82 0.81 0.78 0.66 0.67 0.65 0.49 0.36 0.31
0.62 0.53 0.43 0.32 0.25 0.24 0.22 0.17 0.14 0.11 0.10 0.08 0.11 0.16 0.25 0.34 0.36 0.36 0.39 0.42 0.45 0.49 0.56 0.49 0.37 0.37 0.39 0.47 0.66 0.86 1.07 1.26 1.31 1.14 1.06 1.19 1.19 0.98 0.84 0.95 1.02 0.98 0.91 0.86 0.83 0.71 0.57 0.40 0.32
0.68 0.67 0.47 0.32 0.26 0.28 0.21 0.16 0.12 0.09 0.07 0.08 0.12 0.19 0.29 0.38 0.41 0.40 0.37 0.39 0.40 0.46 0.54 0.56 0.48 0.40 0.39 0.44 0.51 0.58 0.87 1.05 1.20 1.25 1.03 1.15 1.18 1.09 0.94 0.88 1.03 0.98 0.95 0.94 0.92 0.84 0.69 0.55 0.40
0.68 0.60 0.36 0.26 0.27 0.27 0.22 0.17 0.16 0.12 0.12 0.10 0.13 0.21 0.30 0.38 0.43 0.45 0.41 0.39 0.36 0.40 0.47 0.52 0.55 0.54 0.50 0.49 0.51 0.51 0.56 0.67 0.79 0.75 0.72 0.91 1.02 0.99 0.98 0.83 0.86 0.91 1.01 1.14 1.14 0.94 0.80 0.69 0.52
0.41 0.38 0.34 0.29 0.30 0.28 0.25 0.23 0.16 0.14 0.15 0.15 0.12 0.17 0.24 0.30 0.33 0.37 0.37 0.35 0.34 0.39 0.42 0.47 0.54 0.61 0.62 0.63 0.71 0.64 0.59 0.64 0.63 0.60 0.61 0.71 0.81 0.83 0.95 0.89 0.84 0.85 1.02 1.16 1.22 1.09 0.96 0.78 0.65
0.37 0.38 0.50 0.42 0.38 0.35 0.33 0.25 0.13 0.15 0.13 0.12 0.10 0.11 0.16 0.20 0.25 0.29 0.33 0.35 0.35 0.37 0.37 0.39 0.43 0.48 0.53 0.60 0.68 0.73 0.73 0.75 0.71 0.73 0.69 0.65 0.77 0.89 0.99 0.99 0.89 0.88 1.04 1.19 1.25 1.26 1.18 0.99 0.86
0.37 0.37 0.37 0.33 0.31 0.29 0.26 0.18 0.10 0.09 0.08 0.07 0.06 0.05 0.08 0.10 0.16 0.20 0.24 0.30 0.34 0.35 0.32 0.31 0.32 0.32 0.35 0.42 0.54 0.65 0.72 0.80 0.86 0.87 0.84 0.82 0.85 0.88 1.00 1.11 1.11 1.10 1.14 1.18 1.19 1.17 1.10 1.00 0.90
0.32 0.24 0.19 0.16 0.12 0.16 0.16 0.12 0.10 0.06 0.04 0.03 0.03 0.03 0.03 0.03 0.06 0.10 0.15 0.23 0.27 0.29 0.30 0.30 0.31 0.30 0.27 0.31 0.45 0.55 0.61 0.70 0.86 0.93 0.99 1.25 1.33 1.11 1.06 1.13 1.13 1.15 1.21 1.22 1.31 1.38 1.23 1.04 1.01
0.22 0.11 0.06 0.05 0.05 0.05 0.05 0.04 0.05 0.03 0.01 0.01 0.01 0.01 0.02 0.01 0.01 0.02 0.03 0.08 0.14 0.15 0.14 0.18 0.24 0.31 0.29 0.26 0.32 0.43 0.52 0.66 0.80 0.95 1.03 1.26 1.35 1.25 1.26 1.23 1.19 1.16 1.17 1.22 1.39 1.58 1.46 1.25 1.12
0.16 0.08 0.04 0.02 0.03 0.03 0.02 0.02 0.03 0.02 0.02 0.01 0.01 0.01 0.01 0.01 0.01 0.01 0.01 0.02 0.02 0.05 0.07 0.10 0.15 0.24 0.32 0.35 0.40 0.53 0.70 0.83 0.92 1.05 1.11 1.23 1.24 1.22 1.14 1.26 1.34 1.27 1.32 1.38 1.51 1.63 1.66 1.47 1.30
0.08 0.06 0.04 0.02 0.01 0.02 0.01 0.01 0.02 0.03 0.03 0.02 0.02 0.03 0.03 0.03 0.02 0.02 0.01 0.02 0.02 0.03 0.05 0.11 0.19 0.33 0.50 0.66 0.88 1.13 1.40 1.52 1.41 1.26 1.33 1.46 1.52 1.47 1.38 1.44 1.56 1.46 1.47 1.47 1.51 1.52 1.77 1.79 1.60
0.05 0.03 0.02 0.01 0.01 0.01 0.00 0.01 0.02 0.05 0.06 0.07 0.08 0.09 0.09 0.07 0.06 0.06 0.04 0.05 0.07 0.11 0.17 0.28 0.40 0.57 0.74 0.95 1.17 1.43 1.66 1.82 1.84 1.85 1.88 1.86 1.80 1.68 1.56 1.55 1.58 1.58 1.61 1.52 1.42 1.52 1.78 2.07 1.99
0.06 0.04 0.01 0.01 0.01 0.01 0.00 0.01 0.05 0.11 0.17 0.22 0.25 0.25 0.23 0.19 0.19 0.18 0.16 0.15 0.18 0.28 0.41 0.53 0.76 0.93 1.06 1.13 1.23 1.45 1.56 1.63 1.74 1.88 1.93 1.91 1.82 1.69 1.56 1.50 1.51 1.56 1.63 1.59 1.62 1.75 1.95 2.13 2.24
0.06 0.03 0.01 0.01 0.01 0.01 0.00 0.05 0.14 0.24 0.32 0.40 0.40 0.36 0.33 0.26 0.23 0.26 0.29 0.30 0.35 0.57 0.81 0.96 1.07 1.16 1.16 1.14 1.16 1.30 1.43 1.52 1.60 1.73 1.79 1.73 1.58 1.52 1.50 1.48 1.41 1.35 1.41 1.50 1.65 1.87 1.96 2.09 2.24
0.03 0.02 0.02 0.01 0.02 0.03 0.03 0.12 0.26 0.28 0.27 0.31 0.34 0.33 0.29 0.22 0.19 0.23 0.33 0.45 0.65 0.90 1.14 1.28 1.28 1.18 1.04 1.02 1.09 1.15 1.30 1.44 1.48 1.49 1.51 1.45 1.38 1.33 1.35 1.36 1.30 1.19 1.16 1.26 1.43 1.62 1.66 1.75 1.90
0.01 0.01 0.03 0.04 0.03 0.06 0.11 0.27 0.38 0.30 0.21 0.17 0.18 0.18 0.20 0.24 0.30 0.32 0.38 0.57 0.85 1.12 1.37 1.64 1.62 1.38 1.16 1.10 1.17 1.18 1.27 1.33 1.31 1.25 1.26 1.26 1.22 1.17 1.10 1.13 1.13 1.10 1.08 1.09 1.17 1.25 1.31 1.41 1.56
0.01 0.01 0.04 0.08 0.05 0.06 0.12 0.27 0.29 0.20 0.15 0.13 0.15 0.18 0.24 0.31 0.41 0.49 0.61 0.71 0.91 1.14 1.47 1.76 1.82 1.61 1.46 1.37 1.31 1.31 1.21 1.12 1.05 0.97 0.96 0.99 1.00 0.94 0.90 0.96 1.05 1.11 1.03 0.96 1.01 1.03 1.06 1.18 1.27
0.01 0.02 0.06 0.13 0.13 0.12 0.15 0.24 0.20 0.11 0.10 0.13 0.19 0.24 0.29 0.37 0.43 0.58 0.84 1.05 1.27 1.23 1.37 1.60 1.54 1.48 1.45 1.47 1.46 1.35 1.20 1.07 1.03 0.95 0.92 0.89 0.94 0.85 0.85 0.88 0.88 0.89 0.87 0.90 0.99 1.05 1.12 1.12 1.15
0.03 0.05 0.06 0.12 0.17 0.20 0.28 0.34 0.22 0.18 0.20 0.26 0.32 0.35 0.38 0.46 0.51 0.65 0.82 0.97 1.16 1.27 1.29 1.33 1.32 1.33 1.29 1.22 1.18 1.06 0.86 0.75 0.76 0.77 0.73 0.68 0.71 0.66 0.68 0.66 0.70 0.80 0.79 0.79 0.87 0.92 0.94 0.99 1.08
0.10 0.12 0.12 0.20 0.26 0.31 0.45 0.50 0.33 0.33 0.38 0.45 0.52 0.54 0.58 0.59 0.62 0.72 0.80 0.95 1.04 1.05 1.09 1.17 1.10 1.09 1.04 0.93 0.84 0.72 0.57 0.51 0.56 0.57 0.52 0.44 0.47 0.44 0.51 0.55 0.54 0.69 0.85 0.87 0.90 0.90 0.85 0.86 0.87

GEFSSGP_prec_meanprecacc_090.txt.gz
Total_Precipitation_Accumulation
0.95 1.02 1.44 2.00 1.80 1.32 0.90 0.53 0.28 0.21 0.14 0.08 0.04 0.06 0.18 0.44 0.67 0.92 0.73 0.60 0.45 0.33 0.25 0.31 0.41 0.38 0.35 0.33 0.30 0.29 0.34 0.34 0.29 0.32 0.28 0.27 0.23 0.20 0.19 0.17 0.15 0.15 0.16 0.18 0.24 0.33 0.38 0.39 0.48
0.88 1.22 1.65 2.17 1.66 1.10 0.91 0.55 0.31 0.20 0.09 0.05 0.03 0.03 0.10 0.18 0.18 0.42 0.75 0.83 0.41 0.29 0.26 0.34 0.46 0.44 0.45 0.42 0.40 0.44 0.45 0.41 0.40 0.42 0.37 0.36 0.30 0.25 0.23 0.21 0.18 0.19 0.20 0.22 0.26 0.33 0.42 0.45 0.47
1.14 1.75 2.03 1.84 1.17 0.96 0.86 0.53 0.32 0.18 0.08 0.05 0.04 0.03 0.07 0.18 0.25 0.48 0.79 0.66 0.42 0.32 0.32 0.48 0.60 0.59 0.57 0.52 0.53 0.58 0.56 0.51 0.50 0.49 0.47 0.48 0.42 0.39 0.32 0.28 0.27 0.26 0.29 0.32 0.30 0.34 0.41 0.47 0.49
1.18 1.83 1.81 1.35 1.15 0.90 0.62 0.42 0.25 0.18 0.12 0.04 0.03 0.06 0.08 0.22 0.37 0.52 0.57 0.50 0.45 0.42 0.39 0.50 0.61 0.66 0.66 0.55 0.56 0.64 0.60 0.57 0.52 0.46 0.48 0.49 0.46 0.46 0.39 0.40 0.40 0.35 0.35 0.36 0.37 0.39 0.41 0.45 0.49
1.44 1.75 1.48 1.17 1.10 0.79 0.47 0.34 0.23 0.20 0.17 0.06 0.03 0.12 0.15 0.28 0.42 0.48 0.52 0.45 0.46 0.44 0.36 0.40 0.61 0.66 0.64 0.61 0.65 0.73 0.67 0.62 0.52 0.48 0.52 0.53 0.52 0.50 0.47 0.47 0.47 0.43 0.39 0.38 0.39 0.39 0.40 0.42 0.47
1.47 1.50 1.34 1.18 1.12 0.86 0.59 0.38 0.26 0.22 0.15 0.08 0.08 0.18 0.21 0.31 0.48 0.57 0.61 0.69 0.71 0.69 0.54 0.48 0.63 0.67 0.66 0.69 0.74 0.81 0.83 0.72 0.59 0.54 0.54 0.52 0.53 0.51 0.50 0.50 0.50 0.48 0.46 0.45 0.42 0.41 0.40 0.36 0.38
1.33 1.32 1.15 0.89 0.93 1.05 0.74 0.41 0.30 0.26 0.22 0.16 0.12 0.23 0.32 0.37 0.49 0.62 0.77 0.92 1.01 1.04 0.92 0.81 0.75 0.68 0.70 0.77 0.76 0.92 1.07 0.91 0.73 0.65 0.64 0.57 0.52 0.50 0.49 0.48 0.51 0.50 0.50 0.48 0.46 0.46 0.42 0.37 0.35
0.95 0.96 0.86 0.82 0.90 1.10 0.71 0.42 0.30 0.24 0.19 0.13 0.12 0.22 0.37 0.36 0.45 0.62 0.79 0.90 0.96 1.01 0.94 0.93 1.00 0.99 0.97 0.98 1.05 1.18 1.50 1.37 1.00 0.80 0.69 0.64 0.56 0.51 0.54 0.50 0.52 0.56 0.55 0.55 0.57 0.55 0.51 0.48 0.44
0.85 1.01 1.04 1.13 1.05 0.87 0.54 0.40 0.29 0.18 0.15 0.12 0.12 0.20 0.26 0.30 0.39 0.46 0.58 0.67 0.73 0.76 0.81 0.87 0.92 0.94 0.97 0.96 1.12 1.38 1.66 1.73 1.38 1.10 0.95 0.78 0.53 0.56 0.63 0.55 0.63 0.67 0.66 0.67 0.71 0.69 0.63 0.59 0.50
0.89 0.99 0.93 0.92 0.70 0.47 0.37 0.33 0.26 0.21 0.20 0.17 0.18 0.23 0.25 0.30 0.40 0.46 0.52 0.60 0.61 0.59 0.56 0.58 0.61 0.67 0.72 0.77 1.04 1.27 1.33 1.53 1.31 1.28 1.13 0.98 0.92 0.87 0.68 0.62 0.74 0.78 0.78 0.76 0.78 0.78 0.65 0.54 0.42
0.81 0.75 0.64 0.57 0.38 0.27 0.25 0.22 0.19 0.18 0.21 0.19 0.22 0.24 0.30 0.34 0.40 0.44 0.47 0.50 0.52 0.54 0.51 0.45 0.46 0.48 0.54 0.67 0.88 1.10 1.23 1.40 1.41 1.39 1.33 1.32 1.27 0.94 0.77 0.84 0.86 0.85 0.83 0.73 0.76 0.74 0.55 0.42 0.40
0.77 0.61 0.50 0.37 0.25 0.24 0.23 0.18 0.14 0.11 0.11 0.11 0.14 0.17 0.26 0.34 0.36 0.36 0.39 0.42 0.45 0.49 0.56 0.49 0.37 0.37 0.39 0.47 0.66 0.86 1.07 1.26 1.31 1.14 1.06 1.19 1.20 1.01 0.88 1.00 1.07 1.03 0.97 0.95 0.96 0.86 0.69 0.50 0.42
0.85 0.79 0.54 0.36 0.27 0.28 0.21 0.17 0.13 0.09 0.07 0.08 0.13 0.20 0.30 0.38 0.41 0.40 0.37 0.39 0.40 0.46 0.54 0.56 0.48 0.40 0.39 0.44 0.51 0.58 0.87 1.05 1.20 1.25 1.03 1.15 1.19 1.11 0.98 0.92 1.08 1.03 1.01 1.02 1.02 0.96 0.82 0.67 0.51
0.83 0.68 0.41 0.29 0.28 0.27 0.23 0.19 0.17 0.13 0.12 0.11 0.13 0.21 0.30 0.39 0.43 0.45 0.41 0.39 0.36 0.40 0.47 0.52 0.55 0.54 0.50 0.49 0.51 0.51 0.56 0.67 0.79 0.76 0.73 0.92 1.03 1.00 0.99 0.86 0.91 0.97 1.07 1.22 1.21 1.01 0.90 0.80 0.65
0.55 0.47 0.40 0.32 0.31 0.29 0.27 0.26 0.19 0.14 0.15 0.16 0.13 0.18 0.26 0.31 0.34 0.37 0.37 0.35 0.34 0.39 0.42 0.47 0.54 0.61 0.62 0.63 0.71 0.64 0.59 0.64 0.63 0.60 0.61 0.72 0.82 0.84 0.97 0.93 0.89 0.91 1.08 1.22 1.29 1.17 1.06 0.88 0.75
0.43 0.46 0.57 0.45 0.39 0.36 0.36 0.30 0.15 0.15 0.14 0.13 0.11 0.12 0.17 0.21 0.25 0.29 0.33 0.35 0.35 0.37 0.37 0.39 0.43 0.48 0.53 0.60 0.68 0.73 0.73 0.75 0.71 0.74 0.70 0.66 0.79 0.90 1.02 1.05 0.95 0.94 1.10 1.24 1.31 1.35 1.28 1.11 0.98
0.41 0.42 0.42 0.38 0.32 0.29 0.27 0.21 0.11 0.10 0.08 0.07 0.07 0.05 0.08 0.11 0.16 0.20 0.24 0.30 0.34 0.35 0.32 0.31 0.32 0.32 0.35 0.42 0.54 0.65 0.72 0.80 0.86 0.88 0.86 0.84 0.87 0.91 1.03 1.17 1.18 1.16 1.21 1.24 1.24 1.26 1.19 1.12 1.04
0.36 0.26 0.24 0.24 0.15 0.17 0.17 0.13 0.10 0.07 0.04 0.03 0.03 0.03 0.03 0.03 0.06 0.10 0.15 0.23 0.27 0.29 0.30 0.30 0.31 0.30 0.27 0.31 0.45 0.56 0.63 0.71 0.87 0.94 1.00 1.27 1.35 1.13 1.09 1.18 1.20 1.22 1.31 1.30 1.39 1.47 1.31 1.13 1.12
0.27 0.14 0.09 0.11 0.09 0.06 0.05 0.05 0.05 0.03 0.02 0.01 0.01 0.01 0.02 0.01 0.01 0.02 0.03 0.08 0.14 0.15 0.14 0.18 0.24 0.31 0.29 0.26 0.33 0.44 0.53 0.67 0.81 0.97 1.04 1.27 1.37 1.28 1.28 1.28 1.25 1.22 1.25 1.29 1.45 1.66 1.54 1.33 1.21
0.21 0.11 0.06 0.06 0.06 0.03 0.02 0.02 0.03 0.02 0.02 0.01 0.01 0.01 0.01 0.02 0.01 0.01 0.01 0.02 0.02 0.05 0.07 0.10 0.15 0.24 0.32 0.36 0.41 0.53 0.71 0.83 0.93 1.06 1.12 1.24 1.26 1.25 1.17 1.30 1.38 1.31 1.37 1.43 1.56 1.70 1.73 1.54 1.37
0.10 0.09 0.08 0.07 0.04 0.02 0.01 0.01 0.02 0.03 0.03 0.02 0.02 0.03 0.03 0.03 0.02 0.02 0.01 0.02 0.02 0.03 0.05 0.11 0.19 0.33 0.50 0.66 0.88 1.13 1.41 1.53 1.42 1.27 1.34 1.46 1.53 1.49 1.40 1.46 1.59 1.50 1.50 1.52 1.56 1.58 1.83 1.85 1.66
0.08 0.06 0.04 0.03 0.02 0.01 0.01 0.01 0.02 0.05 0.06 0.07 0.08 0.09 0.09 0.08 0.06 0.06 0.04 0.05 0.07 0.11 0.17 0.28 0.40 0.57 0.74 0.95 1.17 1.43 1.66 1.82 1.84 1.86 1.89 1.87 1.81 1.68 1.57 1.57 1.61 1.61 1.65 1.55 1.45 1.56 1.83 2.12 2.06
0.09 0.07 0.02 0.01 0.01 0.01 0.00 0.01 0.05 0.11 0.17 0.22 0.25 0.25 0.23 0.19 0.19 0.18 0.16 0.15 0.18 0.28 0.41 0.53 0.76 0.93 1.06 1.13 1.23 1.45 1.56 1.63 1.74 1.88 1.93 1.92 1.83 1.69 1.56 1.51 1.53 1.59 1.66 1.63 1.65 1.78 1.99 2.18 2.30
0.07 0.04 0.01 0.01 0.01 0.01 0.00 0.05 0.14 0.24 0.32 0.40 0.40 0.36 0.33 0.26 0.23 0.26 0.29 0.30 0.35 0.57 0.81 0.96 1.07 1.16 1.16 1.14 1.16 1.30 1.43 1.52 1.60 1.73 1.79 1.73 1.58 1.52 1.50 1.49 1.44 1.38 1.45 1.54 1.67 1.89 1.98 2.11 2.27
0.03 0.02 0.03 0.03 0.03 0.03 0.03 0.12 0.26 0.28 0.27 0.31 0.34 0.33 0.29 0.22 0.19 0.23 0.33 0.45 0.65 0.90 1.14 1.28 1.28 1.18 1.04 1.02 1.09 1.15 1.30 1.44 1.48 1.49 1.51 1.45 1.38 1.33 1.35 1.36 1.31 1.20 1.18 1.29 1.45 1.64 1.68 1.76 1.93
0.01 0.01 0.06 0.08 0.05 0.06 0.11 0.27 0.38 0.30 0.21 0.17 0.18 0.18 0.20 0.24 0.30 0.32 0.38 0.57 0.85 1.12 1.37 1.64 1.62 1.38 1.16 1.10 1.17 1.18 1.27 1.33 1.31 1.25 1.26 1.26 1.22 1.17 1.10 1.13 1.14 1.10 1.09 1.10 1.19 1.28 1.33 1.42 1.58
0.01 0.02 0.04 0.09 0.05 0.06 0.12 0.27 0.29 0.20 0.15 0.13 0.15 0.18 0.24 0.31 0.41 0.49 0.61 0.71 0.91 1.14 1.47 1.76 1.82 1.61 1.46 1.37 1.31 1.31 1.21 1.12 1.05 0.97 0.96 0.99 1.00 0.94 0.90 0.96 1.05 1.12 1.03 0.97 1.02 1.06 1.09 1.20 1.29
0.01 0.02 0.06 0.13 0.14 0.12 0.15 0.24 0.20 0.11 0.10 0.13 0.19 0.24 0.29 0.37 0.43 0.58 0.84 1.05 1.27 1.23 1.37 1.60 1.54 1.48 1.45 1.47 1.46 1.35 1.20 1.07 1.03 0.95 0.92 0.89 0.94 0.85 0.85 0.88 0.89 0.90 0.87 0.90 0.99 1.06 1.14 1.14 1.17
0.03 0.05 0.06 0.12 0.17 0.20 0.29 0.34 0.22 0.18 0.20 0.26 0.32 0.35 0.38 0.46 0.51 0.65 0.82 0.97 1.16 1.27 1.29 1.33 1.32 1.33 1.29 1.22 1.18 1.06 0.86 0.75 0.76 0.77 0.73 0.68 0.71 0.66 0.68 0.66 0.70 0.81 0.80 0.79 0.88 0.93 0.95 1.01 1.10
0.10 0.12 0.12 0.20 0.26 0.31 0.45 0.50 0.33 0.33 0.38 0.45 0.52 0.54 0.58 0.59 0.62 0.72 0.80 0.95 1.04 1.05 1.09 1.17 1.10 1.09 1.04 0.93 0.84 0.72 0.57 0.51 0.56 0.57 0.52 0.44 0.47 0.44 0.51 0.55 0.54 0.70 0.86 0.87 0.90 0.91 0.86 0.87 0.90

GEFSSGP_prec_meanprecacc_096.txt.gz
Total_Precipitation_Accumulation
1.10 1.13 1.61 2.28 2.03 1.49 1.09 0.73 0.43 0.32 0.19 0.11 0.06 0.07 0.20 0.47 0.72 0.98 0.80 0.66 0.48 0.34 0.27 0.33 0.44 0.39 0.35 0.33 0.30 0.29 0.34 0.34 0.30 0.32 0.29 0.28 0.24 0.22 0.21 0.18 0.17 0.17 0.18 0.19 0.24 0.33 0.38 0.40 0.49
0.97 1.38 1.87 2.43 1.86 1.32 1.18 0.73 0.43 0.28 0.12 0.06 0.04 0.04 0.12 0.20 0.19 0.43 0.80 0.90 0.44 0.29 0.27 0.35 0.48 0.46 0.45 0.42 0.40 0.45 0.45 0.41 0.40 0.42 0.37 0.36 0.31 0.26 0.24 0.22 0.20 0.20 0.22 0.24 0.27 0.35 0.43 0.46 0.48
1.23 1.98 2.33 2.10 1.38 1.24 1.17 0.72 0.38 0.20 0.09 0.05 0.05 0.04 0.09 0.20 0.26 0.49 0.83 0.70 0.43 0.32 0.33 0.50 0.63 0.60 0.58 0.52 0.53 0.58 0.56 0.52 0.50 0.49 0.48 0.48 0.43 0.39 0.33 0.29 0.28 0.27 0.30 0.33 0.32 0.36 0.43 0.48 0.50
1.31 2.07 2.09 1.57 1.33 1.14 0.82 0.55 0.29 0.19 0.12 0.04 0.03 0.07 0.10 0.24 0.38 0.52 0.59 0.51 0.46 0.43 0.39 0.51 0.63 0.68 0.67 0.56 0.56 0.65 0.60 0.57 0.52 0.47 0.49 0.49 0.46 0.46 0.40 0.41 0.40 0.35 0.36 0.38 0.39 0.42 0.43 0.47 0.51
1.65 2.02 1.73 1.36 1.29 1.00 0.67 0.48 0.27 0.22 0.18 0.06 0.04 0.15 0.20 0.33 0.43 0.49 0.53 0.46 0.47 0.45 0.36 0.41 0.63 0.67 0.65 0.61 0.65 0.73 0.67 0.62 0.53 0.48 0.52 0.54 0.53 0.50 0.48 0.48 0.48 0.45 0.41 0.40 0.42 0.42 0.43 0.45 0.49
1.76 1.77 1.54 1.33 1.29 1.08 0.80 0.50 0.30 0.24 0.16 0.09 0.09 0.21 0.27 0.36 0.51 0.58 0.62 0.70 0.71 0.69 0.54 0.49 0.64 0.68 0.66 0.69 0.74 0.82 0.83 0.72 0.59 0.55 0.55 0.53 0.53 0.52 0.52 0.52 0.52 0.50 0.48 0.48 0.46 0.45 0.44 0.39 0.41
1.65 1.60 1.32 1.02 1.08 1.25 0.90 0.51 0.35 0.30 0.24 0.17 0.13 0.26 0.36 0.42 0.51 0.64 0.79 0.93 1.02 1.04 0.93 0.81 0.75 0.69 0.71 0.77 0.76 0.92 1.07 0.91 0.73 0.65 0.64 0.57 0.52 0.51 0.51 0.50 0.54 0.52 0.52 0.50 0.49 0.51 0.46 0.41 0.39
1.29 1.26 1.04 0.98 1.06 1.27 0.84 0.52 0.36 0.27 0.22 0.15 0.13 0.24 0.39 0.38 0.46 0.63 0.80 0.91 0.96 1.01 0.94 0.93 1.00 0.99 0.98 0.98 1.05 1.18 1.50 1.37 1.00 0.80 0.69 0.64 0.56 0.53 0.57 0.53 0.55 0.59 0.58 0.58 0.61 0.59 0.55 0.54 0.49
1.26 1.36 1.25 1.36 1.32 1.14 0.71 0.53 0.36 0.22 0.18 0.14 0.14 0.21 0.28 0.30 0.40 0.48 0.59 0.67 0.73 0.76 0.81 0.87 0.92 0.94 0.97 0.96 1.12 1.38 1.66 1.73 1.38 1.10 0.95 0.78 0.54 0.57 0.65 0.58 0.66 0.70 0.69 0.71 0.75 0.73 0.67 0.64 0.55
1.24 1.25 1.14 1.17 0.96 0.69 0.54 0.44 0.34 0.26 0.24 0.21 0.23 0.26 0.28 0.31 0.42 0.47 0.52 0.61 0.61 0.59 0.56 0.58 0.61 0.67 0.72 0.77 1.04 1.27 1.33 1.53 1.31 1.28 1.13 0.98 0.92 0.87 0.69 0.64 0.78 0.83 0.81 0.79 0.82 0.84 0.70 0.58 0.45
1.11 0.98 0.84 0.82 0.59 0.42 0.36 0.32 0.26 0.21 0.24 0.23 0.27 0.28 0.32 0.36 0.41 0.45 0.47 0.50 0.52 0.54 0.51 0.45 0.46 0.48 0.54 0.67 0.88 1.10 1.23 1.40 1.41 1.39 1.33 1.32 1.27 0.94 0.77 0.84 0.87 0.87 0.86 0.75 0.78 0.77 0.58 0.45 0.42
1.06 0.83 0.70 0.61 0.41 0.36 0.32 0.26 0.19 0.13 0.12 0.12 0.16 0.21 0.28 0.36 0.37 0.36 0.39 0.42 0.45 0.49 0.56 0.49 0.37 0.37 0.39 0.47 0.66 0.86 1.07 1.26 1.31 1.14 1.06 1.19 1.20 1.01 0.88 1.00 1.08 1.04 0.99 0.97 0.97 0.88 0.71 0.53 0.46
1.02 0.95 0.73 0.57 0.40 0.36 0.26 0.22 0.16 0.12 0.08 0.09 0.14 0.23 0.32 0.40 0.41 0.41 0.37 0.39 0.40 0.46 0.54 0.56 0.48 0.40 0.39 0.44 0.51 0.58 0.87 1.05 1.20 1.25 1.03 1.15 1.19 1.11 0.98 0.92 1.09 1.04 1.02 1.03 1.03 0.98 0.85 0.72 0.58
1.00 0.83 0.56 0.49 0.41 0.35 0.28 0.22 0.20 0.15 0.13 0.11 0.14 0.23 0.31 0.39 0.44 0.47 0.42 0.39 0.36 0.40 0.47 0.52 0.55 0.54 0.50 0.49 0.51 0.51 0.56 0.67 0.79 0.76 0.73 0.92 1.03 1.00 1.00 0.86 0.91 0.98 1.08 1.23 1.22 1.04 0.93 0.83 0.70
0.74 0.64 0.57 0.45 0.39 0.34 0.32 0.29 0.21 0.16 0.17 0.17 0.15 0.19 0.27 0.34 0.36 0.39 0.39 0.36 0.35 0.39 0.42 0.47 0.54 0.61 0.62 0.63 0.71 0.64 0.59 0.64 0.64 0.60 0.61 0.72 0.82 0.84 0.97 0.94 0.90 0.91 1.09 1.24 1.31 1.20 1.09 0.91 0.79
0.61 0.59 0.73 0.56 0.50 0.43 0.41 0.34 0.17 0.18 0.16 0.15 0.13 0.13 0.18 0.24 0.28 0.31 0.34 0.36 0.35 0.37 0.37 0.39 0.43 0.48 0.53 0.60 0.68 0.73 0.73 0.75 0.71 0.74 0.70 0.66 0.79 0.91 1.02 1.05 0.95 0.94 1.11 1.26 1.34 1.38 1.31 1.15 1.01
0.60 0.56 0.54 0.49 0.43 0.36 0.32 0.24 0.12 0.12 0.10 0.09 0.08 0.06 0.08 0.11 0.17 0.21 0.25 0.30 0.34 0.35 0.32 0.31 0.32 0.32 0.35 0.42 0.54 0.65 0.72 0.80 0.86 0.88 0.86 0.84 0.87 0.91 1.03 1.17 1.18 1.17 1.23 1.26 1.27 1.28 1.21 1.15 1.08
0.51 0.37 0.32 0.32 0.23 0.25 0.22 0.15 0.12 0.08 0.06 0.04 0.04 0.03 0.03 0.03 0.06 0.11 0.15 0.23 0.27 0.29 0.30 0.30 0.31 0.30 0.27 0.31 0.45 0.56 0.63 0.71 0.87 0.94 1.00 1.27 1.35 1.14 1.09 1.18 1.20 1.23 1.33 1.32 1.41 1.50 1.33 1.15 1.16
0.38 0.23 0.17 0.18 0.13 0.12 0.10 0.07 0.06 0.04 0.02 0.01 0.01 0.02 0.02 0.01 0.01 0.02 0.04 0.08 0.14 0.15 0.14 0.18 0.24 0.31 0.29 0.26 0.33 0.44 0.53 0.67 0.81 0.97 1.04 1.27 1.37 1.28 1.29 1.28 1.25 1.24 1.27 1.30 1.46 1.68 1.56 1.35 1.24
0.32 0.21 0.12 0.11 0.10 0.06 0.04 0.03 0.04 0.03 0.02 0.01 0.01 0.01 0.02 0.02 0.01 0.01 0.01 0.02 0.02 0.05 0.07 0.10 0.15 0.24 0.32 0.36 0.41 0.53 0.71 0.83 0.93 1.06 1.13 1.24 1.26 1.25 1.17 1.30 1.38 1.32 1.37 1.44 1.57 1.71 1.76 1.57 1.40
0.18 0.17 0.13 0.10 0.08 0.04 0.02 0.03 0.03 0.03 0.03 0.03 0.03 0.03 0.03 0.03 0.03 0.02 0.01 0.02 0.02 0.03 0.05 0.11 0.19 0.33 0.50 0.66 0.88 1.13 1.41 1.53 1.42 1.27 1.34 1.47 1.53 1.49 1.41 1.47 1.59 1.50 1.50 1.53 1.57 1.60 1.86 1.88 1.68
0.11 0.08 0.07 0.05 0.05 0.03 0.01 0.02 0.03 0.05 0.07 0.08 0.09 0.09 0.09 0.08 0.07 0.06 0.05 0.05 0.07 0.11 0.17 0.28 0.40 0.57 0.74 0.95 1.17 1.43 1.66 1.82 1.84 1.86 1.89 1.87 1.81 1.69 1.58 1.58 1.61 1.62 1.66 1.56 1.46 1.59 1.87 2.16 2.09
0.10 0.07 0.02 0.01 0.02 0.01 0.01 0.02 0.05 0.11 0.18 0.23 0.25 0.25 0.23 0.19 0.19 0.18 0.16 0.15 0.18 0.28 0.41 0.53 0.76 0.93 1.06 1.13 1.23 1.45 1.56 1.63 1.74 1.88 1.93 1.93 1.84 1.70 1.56 1.51 1.53 1.59 1.67 1.64 1.66 1.81 2.03 2.22 2.34
0.08 0.04 0.01 0.01 0.01 0.01 0.01 0.05 0.15 0.24 0.32 0.40 0.40 0.37 0.33 0.26 0.24 0.27 0.29 0.30 0.35 0.57 0.81 0.96 1.07 1.16 1.16 1.14 1.16 1.30 1.43 1.52 1.60 1.73 1.79 1.73 1.58 1.53 1.50 1.49 1.44 1.39 1.45 1.54 1.68 1.90 2.00 2.14 2.30
0.03 0.02 0.03 0.04 0.04 0.04 0.04 0.12 0.26 0.28 0.27 0.31 0.34 0.33 0.29 0.22 0.19 0.23 0.33 0.46 0.65 0.90 1.14 1.28 1.28 1.18 1.04 1.02 1.09 1.15 1.30 1.44 1.48 1.49 1.51 1.45 1.38 1.33 1.35 1.37 1.31 1.20 1.19 1.30 1.46 1.65 1.69 1.79 1.96
0.01 0.01 0.06 0.09 0.06 0.07 0.11 0.27 0.39 0.30 0.21 0.17 0.18 0.18 0.20 0.24 0.31 0.32 0.38 0.57 0.85 1.12 1.37 1.64 1.62 1.38 1.16 1.10 1.17 1.18 1.27 1.33 1.31 1.25 1.26 1.26 1.22 1.17 1.10 1.13 1.14 1.11 1.09 1.11 1.19 1.28 1.34 1.43 1.60
0.01 0.02 0.04 0.09 0.06 0.06 0.12 0.27 0.29 0.20 0.15 0.13 0.15 0.18 0.24 0.31 0.41 0.49 0.61 0.71 0.91 1.14 1.47 1.76 1.82 1.61 1.46 1.37 1.31 1.31 1.21 1.12 1.05 0.97 0.96 0.99 1.00 0.94 0.90 0.96 1.05 1.12 1.03 0.97 1.03 1.07 1.10 1.21 1.30
0.01 0.03 0.06 0.13 0.14 0.12 0.15 0.24 0.20 0.11 0.10 0.13 0.19 0.24 0.29 0.37 0.43 0.58 0.84 1.05 1.27 1.23 1.37 1.60 1.54 1.48 1.45 1.47 1.46 1.35 1.20 1.07 1.03 0.95 0.92 0.89 0.94 0.85 0.85 0.88 0.89 0.90 0.88 0.91 0.99 1.07 1.14 1.14 1.17
0.03 0.05 0.06 0.12 0.17 0.20 0.29 0.34 0.22 0.18 0.20 0.26 0.32 0.35 0.38 0.46 0.51 0.65 0.82 0.97 1.16 1.27 1.29 1.33 1.32 1.33 1.29 1.22 1.18 1.06 0.86 0.75 0.76 0.77 0.73 0.68 0.71 0.66 0.68 0.66 0.70 0.81 0.80 0.80 0.88 0.93 0.95 1.02 1.11
0.10 0.12 0.12 0.20 0.27 0.31 0.45 0.51 0.33 0.33 0.38 0.45 0.52 0.54 0.58 0.59 0.62 0.72 0.80 0.95 1.04 1.05 1.09 1.17 1.10 1.09 1.04 0.93 0.84 0.72 0.57 0.51 0.56 0.57 0.52 0.44 0.47 0.44 0.51 0.55 0.54 0.70 0.86 0.88 0.90 0.91 0.86 0.89 0.92